sat.trackr.live / text

‹ back to catalog

STARLINK-33920

NORAD 63710 · 2025-087P

PAYLOAD ACTIVE UNKNOWN

§ Identity

Operator
Country
US
Launch date
2025-04-28
Launch site
AFWTR
Launch vehicle
Mass (kg)
RCS (m²)

Purposes: comms

External: N2YO · Heavens-Above · Gunter

§ Orbital elements

Epoch: 2026-09-20T19:51:29.282400Z

Period
94.01 min
Inclination
53.1602°
Eccentricity
0.0000731
Mean motion
15.31683722 rev/d
Perigee alt
470.3 km
Apogee alt
471.3 km
Semi-major
6,848.9 km
B*
6.5928e-4
RAAN
31.9166°
Arg perigee
97.3525°
Mean anomaly
262.7560°
Rev number
7,909

§ Raw data

STARLINK-339201 63710U 25087P   26263.82742225  .00020138  00000+0  65928-3 0  99962 63710  53.1602  31.9166 0000731  97.3525 262.7560 15.31683722 79095

JSON: /api/v1/satellites/63710 · /tle

For live sub-satellite position, see the globe view (requires WebGL).

§ Visibility from observer

Set your observer location to see the next 7 days of passes ≥ 10°. The values pass through the URL so the page stays shareable.

No JS? Fill the form by hand. The geolocation button needs JavaScript.